When you browse on this site, cookies collect data to enhance your experience and personalize the content and advertising you see.
Visit our Privacy Policy to learn more. By continuing to use the site, you agree to this use of cookies and data.
  • In United Kingdom
  • List of Countries
  • For 7 days
  • Water Temperature
  • Satellite Maps
  • Weather Map
  • Weather Widgets
  • user-avatar
    Login

    Hourly Weather Codajas

    Today, 17 July, Wednesday

    Time Temperature Precipitation Wind Pressure Humidity
    00:00 +24°C° 0.3 mm 0 mps 757 mmHg 87%
    01:00 +23°C° 0.3 mm 0 mps 757 mmHg 89%
    02:00 +23°C° 0 mm 0 mps 757 mmHg 87%
    03:00 +23°C° 0.1 mm 0 mps 757 mmHg 89%
    04:00 +22°C° 0.1 mm 0 mps 757 mmHg 90%
    05:00 +24°C° 0.1 mm 1 mps 757 mmHg 92%
    06:00 +23°C° 0 mm 0 mps 757 mmHg 88%
    07:00 +24°C° 0 mm 0 mps 758 mmHg 84%
    08:00 +26°C° 0 mm 0 mps 758 mmHg 81%
    09:00 +28°C° 0 mm 0 mps 758 mmHg 70%
    10:00 +31°C° 0 mm 0 mps 758 mmHg 59%
    11:00 +34°C° 0 mm 0 mps 758 mmHg 49%
    12:00 +36°C° 0 mm 1 mps 757 mmHg 46%
    13:00 +36°C° 0 mm 1 mps 756 mmHg 43%
    14:00 +36°C° 0 mm 1 mps 756 mmHg 40%
    15:00 +35°C° 0 mm 1 mps 755 mmHg 45%
    16:00 +35°C° 0 mm 1 mps 755 mmHg 50%
    17:00 +32°C° 0 mm 0 mps 755 mmHg 56%
    18:00 +30°C° 0 mm 0 mps 755 mmHg 60%
    19:00 +28°C° 0 mm 0 mps 755 mmHg 65%
    20:00 +26°C° 0 mm 0 mps 756 mmHg 70%
    21:00 +26°C° 0 mm 0 mps 756 mmHg 72%
    22:00 +26°C° 0 mm 0 mps 756 mmHg 73%
    23:00 +25°C° 0 mm 0 mps 757 mmHg 74%

    Tomorrow, 18 July, Thursday

    Time Temperature Precipitation Wind Pressure Humidity
    00:00 +25°C° 0 mm 0 mps 757 mmHg 76%
    01:00 +24°C° 0 mm 0 mps 756 mmHg 77%
    02:00 +24°C° 0 mm 0 mps 756 mmHg 78%
    03:00 +24°C° 0 mm 0 mps 756 mmHg 80%
    04:00 +23°C° 0 mm 0 mps 756 mmHg 81%
    05:00 +23°C° 0 mm 0 mps 756 mmHg 83%
    06:00 +24°C° 0 mm 0 mps 757 mmHg 79%
    07:00 +25°C° 0 mm 0 mps 757 mmHg 76%
    08:00 +28°C° 0 mm 1 mps 758 mmHg 73%
    09:00 +30°C° 0 mm 1 mps 758 mmHg 66%
    10:00 +32°C° 0 mm 1 mps 758 mmHg 58%
    11:00 +34°C° 0 mm 1 mps 758 mmHg 51%
    12:00 +35°C° 0 mm 1 mps 757 mmHg 48%
    13:00 +36°C° 0 mm 1 mps 756 mmHg 44%
    14:00 +37°C° 0 mm 1 mps 755 mmHg 40%
    15:00 +35°C° 0 mm 1 mps 755 mmHg 47%
    16:00 +34°C° 0 mm 1 mps 754 mmHg 53%
    17:00 +32°C° 0 mm 1 mps 754 mmHg 60%
    18:00 +29°C° 0.1 mm 0 mps 754 mmHg 66%
    19:00 +27°C° 0.1 mm 0 mps 755 mmHg 72%
    20:00 +25°C° 0.1 mm 0 mps 755 mmHg 78%
    21:00 +25°C° 0.2 mm 0 mps 756 mmHg 82%
    22:00 +24°C° 0.2 mm 0 mps 756 mmHg 87%
    23:00 +25°C° 0.2 mm 1 mps 757 mmHg 91%

    Day after tomorrow, 19 July, Friday

    Time Temperature Precipitation Wind Pressure Humidity
    00:00 +25°C° 0.1 mm 1 mps 757 mmHg 92%
    01:00 +25°C° 0.1 mm 1 mps 756 mmHg 94%
    02:00 +24°C° 0.1 mm 1 mps 756 mmHg 96%
    03:00 +24°C° 0 mm 1 mps 756 mmHg 96%
    04:00 +24°C° 0 mm 1 mps 756 mmHg 96%
    05:00 +22°C° 0 mm 0 mps 756 mmHg 96%
    06:00 +23°C° 0 mm 0 mps 756 mmHg 93%
    07:00 +24°C° 0 mm 0 mps 757 mmHg 90%
    08:00 +25°C° 0 mm 0 mps 757 mmHg 86%
    09:00 +27°C° 0 mm 0 mps 757 mmHg 74%
    10:00 +32°C° 0 mm 1 mps 757 mmHg 62%
    11:00 +35°C° 0 mm 1 mps 757 mmHg 50%
    12:00 +35°C° 0 mm 1 mps 756 mmHg 47%
    13:00 +37°C° 0 mm 2 mps 755 mmHg 45%
    14:00 +38°C° 0 mm 2 mps 754 mmHg 42%
    15:00 +35°C° 0 mm 1 mps 754 mmHg 48%
    16:00 +34°C° 0 mm 1 mps 753 mmHg 54%
    17:00 +33°C° 0 mm 1 mps 753 mmHg 60%
    18:00 +31°C° 0.5 mm 1 mps 753 mmHg 69%
    19:00 +29°C° 0.5 mm 1 mps 754 mmHg 78%
    20:00 +25°C° 0.5 mm 0 mps 754 mmHg 86%
    21:00 +24°C° 0.5 mm 0 mps 755 mmHg 89%
    22:00 +24°C° 0.5 mm 0 mps 756 mmHg 92%
    23:00 +23°C° 0.5 mm 0 mps 756 mmHg 94%

    20 July, Saturday

    Time Temperature Precipitation Wind Pressure Humidity
    00:00 +23°C° 0 mm 0 mps 756 mmHg 95%
    01:00 +23°C° 0 mm 0 mps 755 mmHg 95%
    02:00 +23°C° 0 mm 0 mps 755 mmHg 96%
    03:00 +22°C° 0.1 mm 0 mps 755 mmHg 96%
    04:00 +22°C° 0.1 mm 0 mps 755 mmHg 96%
    05:00 +24°C° 0.1 mm 1 mps 755 mmHg 97%
    06:00 +23°C° 0 mm 0 mps 755 mmHg 95%
    07:00 +24°C° 0 mm 0 mps 756 mmHg 93%
    08:00 +24°C° 0 mm 0 mps 756 mmHg 91%
    09:00 +28°C° 0.4 mm 1 mps 756 mmHg 86%
    10:00 +30°C° 0.4 mm 1 mps 756 mmHg 81%
    11:00 +31°C° 0.4 mm 1 mps 756 mmHg 76%
    12:00 +33°C° 0.3 mm 1 mps 756 mmHg 67%
    13:00 +34°C° 0.3 mm 1 mps 755 mmHg 58%
    14:00 +35°C° 0.3 mm 1 mps 754 mmHg 48%
    15:00 +34°C° 0 mm 1 mps 753 mmHg 53%
    16:00 +33°C° 0 mm 1 mps 753 mmHg 58%
    17:00 +32°C° 0 mm 1 mps 753 mmHg 62%
    18:00 +30°C° 0.1 mm 1 mps 753 mmHg 70%
    19:00 +28°C° 0.1 mm 1 mps 754 mmHg 78%
    20:00 +26°C° 0.1 mm 1 mps 754 mmHg 85%
    21:00 +24°C° 0 mm 0 mps 755 mmHg 86%
    22:00 +24°C° 0 mm 0 mps 755 mmHg 86%
    23:00 +24°C° 0 mm 0 mps 756 mmHg 86%

    21 July, Sunday

    Time Temperature Precipitation Wind Pressure Humidity
    00:00 +23°C° 0 mm 0 mps 755 mmHg 87%
    01:00 +23°C° 0 mm 0 mps 755 mmHg 88%
    02:00 +23°C° 0 mm 0 mps 755 mmHg 88%
    03:00 +23°C° 0 mm 0 mps 755 mmHg 89%
    04:00 +22°C° 0 mm 0 mps 754 mmHg 90%
    05:00 +22°C° 0 mm 0 mps 754 mmHg 91%
    06:00 +23°C° 0 mm 0 mps 755 mmHg 87%
    07:00 +24°C° 0 mm 0 mps 755 mmHg 83%
    08:00 +27°C° 0 mm 1 mps 756 mmHg 79%
    09:00 +30°C° 0 mm 1 mps 756 mmHg 68%
    10:00 +32°C° 0 mm 2 mps 756 mmHg 58%
    11:00 +35°C° 0 mm 2 mps 756 mmHg 47%
    12:00 +36°C° 0 mm 2 mps 755 mmHg 44%
    13:00 +37°C° 0 mm 2 mps 754 mmHg 41%
    14:00 +37°C° 0 mm 2 mps 753 mmHg 39%
    15:00 +36°C° 0 mm 2 mps 753 mmHg 44%
    16:00 +34°C° 0 mm 1 mps 752 mmHg 49%
    17:00 +33°C° 0 mm 1 mps 752 mmHg 55%
    18:00 +31°C° 0 mm 1 mps 753 mmHg 59%
    19:00 +29°C° 0 mm 1 mps 753 mmHg 64%
    20:00 +28°C° 0 mm 1 mps 754 mmHg 69%
    21:00 +27°C° 0 mm 1 mps 754 mmHg 70%
    22:00 +27°C° 0 mm 1 mps 755 mmHg 72%
    23:00 +26°C° 0 mm 1 mps 755 mmHg 74%

    22 July, Monday

    Time Temperature Precipitation Wind Pressure Humidity
    00:00 +24°C° 0 mm 0 mps 755 mmHg 74%
    01:00 +23°C° 0 mm 0 mps 755 mmHg 75%
    02:00 +23°C° 0 mm 0 mps 754 mmHg 75%
    03:00 +23°C° 0 mm 0 mps 754 mmHg 76%
    04:00 +23°C° 0 mm 0 mps 754 mmHg 76%
    05:00 +23°C° 0 mm 0 mps 754 mmHg 77%
    06:00 +24°C° 0 mm 0 mps 755 mmHg 75%
    07:00 +27°C° 0 mm 1 mps 755 mmHg 72%
    08:00 +28°C° 0 mm 1 mps 756 mmHg 70%
    09:00 +30°C° 0 mm 1 mps 756 mmHg 62%
    10:00 +32°C° 0 mm 2 mps 756 mmHg 55%
    11:00 +35°C° 0 mm 2 mps 756 mmHg 48%
    12:00 +36°C° 0 mm 2 mps 755 mmHg 45%
    13:00 +37°C° 0 mm 2 mps 754 mmHg 43%
    14:00 +37°C° 0 mm 2 mps 753 mmHg 41%
    15:00 +37°C° 0 mm 2 mps 753 mmHg 45%
    16:00 +35°C° 0 mm 1 mps 752 mmHg 49%
    17:00 +34°C° 0 mm 1 mps 752 mmHg 53%
    18:00 +32°C° 0 mm 1 mps 753 mmHg 57%
    19:00 +30°C° 0 mm 1 mps 753 mmHg 60%
    20:00 +29°C° 0 mm 1 mps 754 mmHg 64%
    21:00 +28°C° 0 mm 1 mps 754 mmHg 65%
    22:00 +28°C° 0 mm 1 mps 754 mmHg 67%
    23:00 +27°C° 0 mm 1 mps 755 mmHg 68%
    Show more